WA1ENO Weather Reports


time (UTC)temp
F
wind
direction
speed
knots
gust
knots
rain 1hr
in
rain 24hr
in
rain mn
in
humidity
%
barometer
mb
20260506195506 61 202 11.3 21.7 0.00 0.00 0.00 2 1007.1
20260506195007 61 203 8.7 19.1 0.00 0.00 0.00 2 1007.1
20260506194006 61 194 12.2 20.9 0.00 0.00 0.00 2 1007.1
20260506193508 62 192 13.9 25.2 0.00 0.00 0.00 2 1007.0
20260506193007 63 207 9.6 19.1 0.00 0.00 0.00 2 1007.2
20260506192506 63 201 12.2 26.1 0.00 0.00 0.00 2 1007.1
20260506191506 63 201 10.4 24.3 0.00 0.00 0.00 2 1007.2
20260506191006 63 233 10.4 20.0 0.00 0.00 0.00 2 1007.2
20260506190507 63 202 11.3 20.0 0.00 0.00 0.00 2 1007.0
20260506190007 63 205 10.4 24.3 0.00 0.00 0.00 2 1006.9
20260506185506 64 199 8.7 19.1 0.00 0.00 0.00 2 1006.9
20260506185007 64 196 10.4 20.9 0.00 0.00 0.00 2 1007.2
20260506184506 64 209 12.2 20.9 0.00 0.00 0.00 2 1007.1
20260506184006 64 198 10.4 19.1 0.00 0.00 0.00 2 1007.2
20260506183506 64 206 11.3 25.2 0.00 0.00 0.00 2 1007.3
20260506183007 64 201 13.9 22.6 0.00 0.00 0.00 2 1007.3
20260506182506 65 200 13.9 24.3 0.00 0.00 0.00 2 1007.2
20260506182006 65 203 9.6 22.6 0.00 0.00 0.00 2 1007.3
20260506181506 65 198 11.3 25.2 0.00 0.00 0.00 2 1007.4
20260506180507 65 207 8.7 25.2 0.00 0.00 0.00 2 1007.7
20260506175506 66 205 10.4 22.6 0.00 0.00 0.00 2 1007.8
20260506175006 66 198 10.4 22.6 0.00 0.00 0.00 2 1007.9
20260506174006 66 224 11.3 22.6 0.00 0.00 0.00 2 1008.0
20260506172506 66 216 17.4 27.8 0.00 0.00 0.00 2 1007.8
20260506172007 67 199 13.9 30.4 0.00 0.00 0.00 2 1007.9
20260506171506 66 209 13.0 24.3 0.00 0.00 0.00 2 1007.8
20260506171006 66 203 10.4 26.9 0.00 0.00 0.00 2 1007.9
20260506170506 65 198 13.9 24.3 0.00 0.00 0.00 2 1007.9
20260506170007 66 196 13.9 20.9 0.00 0.00 0.00 2 1008.2
20260506165506 66 205 11.3 28.7 0.00 0.00 0.00 2 1008.1
20260506165007 66 200 15.6 30.4 0.00 0.00 0.00 2 1008.3
20260506164506 66 205 11.3 20.9 0.00 0.00 0.00 2 1008.3
20260506164008 67 204 11.3 17.4 0.00 0.00 0.00 2 1008.3
20260506163506 67 198 10.4 21.7 0.00 0.00 0.00 2 1008.4
20260506163006 67 200 6.1 13.0 0.00 0.00 0.00 2 1008.4
20260506162505 67 214 8.7 20.9 0.00 0.00 0.00 2 1008.5
20260506161506 66 192 12.2 20.9 0.00 0.00 0.00 2 1008.6
20260506161006 67 198 8.7 18.2 0.00 0.00 0.00 2 1008.6
20260506160506 67 191 12.2 19.1 0.00 0.00 0.00 2 1008.7
20260506160006 67 193 11.3 21.7 0.00 0.00 0.00 2 1008.8
20260506155506 67 187 13.0 20.9 0.00 0.00 0.00 2 1008.8
20260506155006 68 203 7.0 20.0 0.00 0.00 0.00 2 1008.9
20260506154506 66 189 12.2 19.1 0.00 0.00 0.00 2 1009.2
20260506153506 66 195 11.3 19.1 0.00 0.00 0.00 2 1009.3
20260506153006 66 186 10.4 19.1 0.00 0.00 0.00 2 1009.4
20260506152506 66 189 9.6 18.2 0.00 0.00 0.00 2 1009.4
20260506152006 65 193 12.2 20.0 0.00 0.00 0.00 2 1009.5
20260506151507 66 202 8.7 20.0 0.00 0.00 0.00 2 1009.4
20260506151006 66 205 10.4 25.2 0.00 0.00 0.00 2 1009.4
20260506150508 66 203 10.4 20.9 0.00 0.00 0.00 2 1009.5
20260506145508 65 201 12.2 25.2 0.00 0.00 0.00 2 1009.5
20260506145008 65 205 13.0 20.9 0.00 0.00 0.00 2 1009.4
20260506144508 65 203 12.2 20.9 0.00 0.00 0.00 2 1009.1
20260506144008 66 192 11.3 24.3 0.00 0.00 0.00 2 1009.1
20260506143509 66 197 10.4 21.7 0.00 0.00 0.00 2 1009.2
20260506143008 67 194 9.6 20.9 0.00 0.00 0.00 2 1009.3
20260506142508 66 184 12.2 21.7 0.00 0.00 0.00 2 1009.2
20260506142008 65 197 11.3 20.0 0.00 0.00 0.00 2 1009.2
20260506141508 65 193 12.2 21.7 0.00 0.00 0.00 2 1009.2
20260506141008 66 195 10.4 19.1 0.00 0.00 0.00 2 1009.0
20260506140508 66 192 11.3 17.4 0.00 0.00 0.00 2 1009.2
20260506140008 66 201 7.8 15.6 0.00 0.00 0.00 2 1009.1
20260506135508 65 185 12.2 18.2 0.00 0.00 0.00 2 1009.4
20260506134509 65 187 8.7 15.6 0.00 0.00 0.00 2 1009.7
20260506134008 64 188 11.3 19.1 0.00 0.00 0.00 2 1009.7
20260506133508 64 207 11.3 18.2 0.00 0.00 0.00 2 1009.9
20260506133008 64 198 12.2 18.2 0.00 0.00 0.00 2 1009.9
20260506132508 63 192 11.3 20.0 0.00 0.00 0.00 2 1009.8
20260506132008 63 196 11.3 18.2 0.00 0.00 0.00 2 1009.8
20260506131008 63 196 8.7 15.6 0.00 0.00 0.00 2 1009.8
20260506130507 63 198 9.6 13.9 0.00 0.00 0.00 2 1009.8
20260506130008 62 200 10.4 15.6 0.00 0.00 0.00 2 1009.9
20260506125508 62 197 8.7 19.1 0.00 0.00 0.00 2 1009.8
20260506125008 62 209 6.1 17.4 0.00 0.00 0.00 2 1009.8
20260506124508 62 199 11.3 20.9 0.00 0.00 0.00 2 1009.7
20260506123508 60 188 12.2 18.2 0.00 0.00 0.00 2 1009.6
20260506123008 60 196 11.3 19.1 0.00 0.00 0.00 2 1009.6
20260506122007 61 192 8.7 13.9 0.00 0.00 0.00 2 1010.0
20260506121507 60 198 7.8 14.8 0.00 0.00 0.00 2 1010.1
20260506121007 60 205 9.6 15.6 0.00 0.00 0.00 2 1010.2
20260506120508 60 191 12.2 19.1 0.00 0.00 0.00 2 1010.1
20260506120007 60 200 14.8 22.6 0.00 0.00 0.00 2 1010.2
20260506115509 60 196 8.7 20.9 0.00 0.00 0.00 2 1010.1
20260506115008 60 192 12.2 19.1 0.00 0.00 0.00 2 1010.3
20260506114508 61 188 8.7 14.8 0.00 0.00 0.00 2 1010.2
20260506113508 60 204 11.3 20.9 0.00 0.00 0.00 2 1010.3
20260506112508 59 198 9.6 18.2 0.00 0.00 0.00 2 1010.2
20260506112008 59 204 10.4 17.4 0.00 0.00 0.00 2 1010.3
20260506111508 59 205 7.8 14.8 0.00 0.00 0.00 2 1010.2
20260506111008 59 194 8.7 12.2 0.00 0.00 0.00 2 1010.2
20260506110508 59 204 6.1 15.6 0.00 0.00 0.00 2 1010.2
20260506110008 59 204 8.7 15.6 0.00 0.00 0.00 2 1010.3
20260506105508 59 203 7.0 13.0 0.00 0.00 0.00 2 1010.4
20260506105008 59 200 7.8 13.0 0.00 0.00 0.00 2 1010.4
20260506104508 59 199 7.8 13.9 0.00 0.00 0.00 2 1010.3
20260506104008 59 203 10.4 19.1 0.00 0.00 0.00 2 1010.3
20260506103508 59 197 6.1 15.6 0.00 0.00 0.00 2 1010.3
20260506103008 59 216 7.8 13.0 0.00 0.00 0.00 2 1010.2
20260506102508 59 213 7.8 13.9 0.00 0.00 0.00 2 1010.2
20260506101507 59 214 7.0 13.0 0.00 0.00 0.00 2 1010.1
20260506101007 58 199 7.8 14.8 0.00 0.00 0.00 2 1010.1
20260506100507 58 193 8.7 17.4 0.00 0.00 0.00 2 1010.0
20260506100007 59 193 7.8 13.9 0.00 0.00 0.00 2 1010.0
20260506095507 58 202 6.1 14.8 0.00 0.00 0.00 2 1010.0
20260506095007 58 200 8.7 13.9 0.00 0.00 0.00 2 1010.0
20260506093007 58 199 6.1 14.8 0.00 0.00 0.00 2 1010.0
20260506092508 59 196 8.7 13.9 0.00 0.00 0.00 2 1009.9
20260506092008 59 200 8.7 13.9 0.00 0.00 0.00 2 1009.9
20260506091007 59 197 7.8 18.2 0.00 0.00 0.00 2 1010.0
20260506090507 59 200 6.1 17.4 0.00 0.00 0.00 2 1010.0
20260506090007 59 206 7.0 19.1 0.00 0.00 0.00 2 1010.0
20260506085507 59 203 12.2 20.0 0.00 0.00 0.00 2 1010.2
20260506085007 59 208 8.7 15.6 0.00 0.00 0.00 2 1010.2
20260506084507 59 206 10.4 19.1 0.00 0.00 0.00 2 1010.1
20260506084007 59 194 8.7 13.9 0.00 0.00 0.00 2 1010.2
20260506083508 59 193 8.7 15.6 0.00 0.00 0.00 2 1010.2
20260506083008 59 196 7.8 13.9 0.00 0.00 0.00 2 1010.1
20260506082508 59 200 8.7 14.8 0.00 0.00 0.00 2 1010.1
20260506082007 59 201 8.7 15.6 0.00 0.00 0.00 2 1010.1
20260506081508 59 198 8.7 15.6 0.00 0.00 0.00 2 1010.2
20260506081007 59 207 9.6 20.0 0.00 0.00 0.00 2 1010.2
20260506080507 59 201 8.7 15.6 0.00 0.00 0.00 2 1010.1
20260506073508 59 216 8.7 13.9 0.00 0.00 0.00 2 1010.1
20260506072508 59 193 9.6 18.2 0.00 0.00 0.00 2 1010.1
20260506072007 59 197 11.3 17.4 0.00 0.00 0.00 2 1010.0
20260506071507 59 209 7.8 20.0 0.00 0.00 0.00 2 1009.9